Flag for Kenya Weather past 2 weeks in Nairobi, Kenya

Now
70 °F

Partly sunny.


Feels Like: 70 °F
Forecast: 56 / 73 °F
Wind: 13 mph from Southeast

Location: Nairobi / Wilson

Current Time: Aug 4, 2015 at 3:54:06 PM

Latest Report: Aug 4, 2015 at 3:00 PM


Visibility: N/A

Pressure: 30.18 "Hg (24.83 "Hg at 1680m altitude)

Humidity: 64%

Dew point: 57 °F

Location of NairobiLocation

Historic Weather in Nairobi — Graph

°F

Nairobi temperature yesterday

Maximum temperature yesterday: 72 °F (at 3:00 PM)
Minimum temperature yesterday: 59 °F (at 6:00 AM)
Average temperature yesterday: 66 °F

Past Weeks' High & Low Weather Summary

 TemperatureHumidityPressure
High81 °F (Jul 31, 4:00 PM)100% (Jul 23, 10:00 PM)30.30 "Hg (Jul 23, 10:00 PM)
Low54 °F (Jul 26, 6:00 AM)34% (Jul 31, 4:00 PM)30.07 "Hg (Jul 31, 4:00 PM)
Average66 °F70%30.20 "Hg
* Reported Jul 20 2:00 PM — Aug 4 2:00 PM, Nairobi, Weather by CustomWeather, © 2015

Note: Actual official high and low records may vary slightly from our data, if they occured in-between our weather recording intervals... More about our weather records

Advertising

Nairobi weather history for previous 24 hours

 ConditionsComfort  
Time TempWeatherWind HumidityBarometerVisibility
2:00 PM
Tue, Aug 4
68 °FPartly sunny.No wind69%30.21 "HgN/A
1:00 PM64 °FOvercast.No wind78%30.21 "HgN/A
12:00 PM63 °FLow clouds.No wind83%30.24 "HgN/A
11:00 AM61 °FMore clouds than sun.8 mph88%30.27 "HgN/A
10:00 AM61 °FMore clouds than sun.No wind88%30.24 "Hg5 mi
9:00 AM59 °FDrizzle. More clouds than sun.No wind94%30.24 "Hg5 mi
8:00 AM59 °FMore clouds than sun.No wind94%30.24 "HgN/A
7:00 AM59 °FBroken clouds.No wind94%30.21 "HgN/A
11:00 PM
Mon, Aug 3
64 °FOvercast.No wind64%30.21 "HgN/A
10:00 PM66 °FOvercast.No wind60%30.21 "HgN/A
9:00 PM66 °FOvercast.8 mph60%30.21 "HgN/A
8:00 PM68 °FOvercast.6 mph60%30.18 "HgN/A
7:00 PM68 °FPassing clouds.14 mph56%30.18 "HgN/A
6:00 PM70 °FPartly sunny.5 mph57%30.15 "HgN/A
5:00 PM72 °FPartly sunny.7 mph53%30.15 "HgN/A
4:00 PM72 °FPartly sunny.6 mph53%30.15 "HgN/A
3:00 PM72 °FPartly sunny.7 mph57%30.15 "HgN/A
Weather by CustomWeather, © 2015

See weather overviewHow to use our weather pages